Asheville, NC

8:41 AM EDT on March 26, 2017 (GMT -0400)
Asheville Regional

Weather History for KAVL - March, 2013

Change the Weather History Date:

Thursday, March 14, 2013

  Actual Average Record
Temperature  
Mean Temperature 36 °F 46 °F  
Max Temperature 47 °F 58 °F 82 °F (1973)
Min Temperature 25 °F 35 °F 8 °F (1993)
Degree Days  
Heating Degree Days 29 18  
Month to date heating degree days 358 280  
Since 1 July heating degree days 3299 3497  
Cooling Degree Days 0 0  
Month to date cooling degree days 0 0  
Year to date cooling degree days 0 0  
Moisture  
Dew Point 12 °F    
Average Humidity 42    
Maximum Humidity 60    
Minimum Humidity 23    
Precipitation  
Precipitation 0.00 in 0.13 in 1.41 in (1946)
Month to date precipitation 1.70 1.73  
Year to date precipitation 13.84 9.16  
Snow  
Snow 0.00 in 0.10 in 2.00 in (1924)
Month to date snowfall T 1.0  
Since 1 July snowfall 0.2 8.3  
Snow Depth 0.00 in    
Sea Level Pressure  
Sea Level Pressure 30.23 in    
Wind  
Wind Speed 14 mph (NNW)    
Max Wind Speed 29 mph    
Max Gust Speed 37 mph    
Visibility 10 miles    
Events      
T = Trace of Precipitation, MM = Missing Value Source: NWS Daily Summary

Daily Weather History Graph

Daily Weather History Graph

Search for Another Location

Airport or City:

Trip Planner

Search our weather history database for the weather conditions in past years. The results will help you decide how hot, cold, wet, or windy it might be!

Date:

Astronomy

Mar. 14, 2013 Rise Set
Actual Time 7:41 AM EDT 7:37 PM EDT
Civil Twilight 7:16 AM EDT 8:02 PM EDT
Nautical Twilight 6:47 AM EDT 8:32 PM EDT
Astronomical Twilight 6:17 AM EDT 9:01 PM EDT
Moon 9:02 AM EDT (3/14) 10:43 PM EDT (3/14)
Length of Visible Light 12h 45m
Length of Day
11h 55m
Waxing Crescent, 9% of the Moon is Illuminated
Mar 14
Waxing Crescent
Mar 19
First Quarter
Mar 27
Full
Apr 3
Last Quarter
Apr 10
New

Hourly Weather History & Observations

Time (EDT) Temp. Windchill Dew Point Humidity Pressure Visibility Wind Dir Wind Speed Gust Speed Precip Events Conditions
12:54 AM 28.9 °F 17.3 °F 14.0 °F 54% 30.18 in 10.0 mi North 16.1 mph 26.5 mph N/A   Overcast
1:54 AM 28.0 °F 13.9 °F 12.9 °F 53% 30.17 in 10.0 mi NNW 23.0 mph 29.9 mph N/A   Overcast
2:54 AM 28.0 °F 14.9 °F 12.9 °F 53% 30.18 in 10.0 mi North 19.6 mph 32.2 mph N/A   Overcast
3:54 AM 27.0 °F 11.6 °F 12.9 °F 56% 30.19 in 10.0 mi NNW 26.5 mph 32.2 mph N/A   Mostly Cloudy
4:54 AM 27.0 °F 13.2 °F 12.9 °F 56% 30.19 in 10.0 mi NNW 20.7 mph 33.4 mph N/A   Mostly Cloudy
5:54 AM 26.1 °F 12.7 °F 12.0 °F 55% 30.22 in 10.0 mi North 18.4 mph 31.1 mph N/A   Clear
6:54 AM 25.0 °F 9.9 °F 12.0 °F 58% 30.24 in 10.0 mi NNW 23.0 mph 34.5 mph N/A   Clear
7:54 AM 25.0 °F 10.6 °F 12.9 °F 60% 30.27 in 10.0 mi NNW 20.7 mph 32.2 mph N/A   Clear
8:54 AM 26.1 °F 14.0 °F 12.9 °F 58% 30.29 in 10.0 mi North 15.0 mph 25.3 mph N/A   Clear
9:54 AM 28.0 °F 16.5 °F 12.0 °F 51% 30.30 in 10.0 mi North 15.0 mph 25.3 mph N/A   Clear
10:54 AM 30.9 °F 19.8 °F 9.0 °F 40% 30.30 in 10.0 mi NNW 16.1 mph 21.9 mph N/A   Clear
11:54 AM 35.1 °F 26.4 °F 3.9 °F 27% 30.30 in 10.0 mi North 12.7 mph 25.3 mph N/A   Clear
12:54 PM 39.0 °F 32.8 °F 7.0 °F 27% 30.28 in 10.0 mi North 9.2 mph 17.3 mph N/A   Clear
1:54 PM 41.0 °F 35.8 °F 9.0 °F 27% 30.27 in 10.0 mi NNE 8.1 mph 19.6 mph N/A   Clear
2:54 PM 44.1 °F 38.6 °F 10.0 °F 25% 30.23 in 10.0 mi North 10.4 mph 18.4 mph N/A   Clear
3:54 PM 46.0 °F 40.2 °F 10.9 °F 24% 30.20 in 10.0 mi North 12.7 mph 19.6 mph N/A   Clear
4:54 PM 45.0 °F 39.3 °F 10.9 °F 25% 30.19 in 10.0 mi North 11.5 mph 20.7 mph N/A   Clear
5:54 PM 43.0 °F 35.7 °F 10.9 °F 27% 30.18 in 10.0 mi North 15.0 mph - N/A   Clear
6:54 PM 43.0 °F 36.4 °F 12.0 °F 28% 30.18 in 10.0 mi North 12.7 mph - N/A   Clear
7:54 PM 39.0 °F 31.8 °F 14.0 °F 36% 30.20 in 10.0 mi NNW 11.5 mph - N/A   Clear
8:54 PM 37.0 °F 29.8 °F 15.1 °F 41% 30.21 in 10.0 mi NNW 10.4 mph - N/A   Clear
9:54 PM 34.0 °F 29.8 °F 15.1 °F 46% 30.22 in 10.0 mi NW 4.6 mph - N/A   Clear
10:54 PM 33.1 °F 30.0 °F 15.1 °F 48% 30.23 in 10.0 mi NNW 3.5 mph - N/A   Clear
11:54 PM 30.9 °F 25.2 °F 16.0 °F 54% 30.22 in 10.0 mi NNW 5.8 mph - N/A   Clear